Location: Unspecified
(0.0000°N, 0.0000°E)
Time: 08:42:27
(UTC+00:00)

Vanguard 2 Rocket - Pass Details

Date: 15 December 2018
Orbit: 556 x 3325 km, 32.9° (Epoch: 22 March)

Event Time Altitude Azimuth Distance (km) Brightness Sun altitude
Rises 02:08:44 0° 237° (WSW) 5,498 - -50.0°
Reaches altitude 10° 02:13:04 10° 238° (WSW) 4,032 - -49.2°
Maximum altitude 02:22:44 79° 323° (NW) 1,107 - -47.2°
Drops below altitude 10° 02:28:12 10° 50° (NE) 2,351 - -46.1°
Sets 02:30:09 0° 52° (NE) 3,097 - -45.7°
